Time,TemperatureF,DewpointF,PressureIn,WindDirection,WindDirectionDegrees,WindSpeedMPH,WindSpeedGustMPH,Humidity,HourlyPrecipIn,Conditions,Clouds,dailyrainin,SoftwareType,DateUTC
2013-03-14 00:02:00,40.0,23.0,-100.00,West,265,22.0,32.0,51,-99.99,,,-99.99,,2013-03-14 06:02:00,
2013-03-14 00:12:00,40.0,23.0,-100.00,West,260,24.0,29.0,50,-99.99,,,-99.99,,2013-03-14 06:12:00,
2013-03-14 00:22:00,40.0,23.0,-100.00,West,260,21.0,32.0,50,-99.99,,,-99.99,,2013-03-14 06:22:00,
2013-03-14 00:32:00,40.0,23.0,-100.00,West,260,21.0,30.0,50,-99.99,,,-99.99,,2013-03-14 06:32:00,
2013-03-14 00:42:00,40.0,23.0,-100.00,WSW,255,23.0,30.0,50,-99.99,,,-99.99,,2013-03-14 06:42:00,
2013-03-14 00:52:00,40.0,23.0,-100.00,WSW,250,26.0,32.0,50,-99.99,,,-99.99,,2013-03-14 06:52:00,
2013-03-14 01:02:00,39.0,22.0,-100.00,West,260,24.0,33.0,50,-99.99,,,-99.99,,2013-03-14 07:02:00,
2013-03-14 01:12:00,40.0,22.0,-100.00,WSW,255,27.0,32.0,50,-99.99,,,-99.99,,2013-03-14 07:12:00,
2013-03-14 01:22:00,39.0,22.0,-100.00,West,265,23.0,35.0,50,-99.99,,,-99.99,,2013-03-14 07:22:00,
2013-03-14 01:32:00,39.0,22.0,-100.00,WSW,255,25.0,34.0,49,-99.99,,,-99.99,,2013-03-14 07:32:00,
2013-03-14 01:42:00,39.0,22.0,-100.00,West,265,24.0,34.0,50,-99.99,,,-99.99,,2013-03-14 07:42:00,
2013-03-14 01:52:00,39.0,22.0,-100.00,West,265,22.0,30.0,50,-99.99,,,-99.99,,2013-03-14 07:52:00,
2013-03-14 02:02:00,39.0,22.0,-100.00,West,265,21.0,29.0,50,-99.99,,,-99.99,,2013-03-14 08:02:00,
2013-03-14 02:12:00,39.0,22.0,-100.00,West,270,20.0,28.0,50,-99.99,,,-99.99,,2013-03-14 08:12:00,
2013-03-14 02:21:00,39.0,22.0,-100.00,West,280,17.0,24.0,51,-99.99,,,-99.99,,2013-03-14 08:21:00,
2013-03-14 02:32:00,38.0,22.0,-100.00,WNW,290,14.0,21.0,51,-99.99,,,-99.99,,2013-03-14 08:32:00,
2013-03-14 02:41:00,39.0,22.0,-100.00,WNW,285,12.0,22.0,50,-99.99,,,-99.99,,2013-03-14 08:41:00,
2013-03-14 02:51:00,38.0,22.0,-100.00,WNW,290,9.0,17.0,51,-99.99,,,-99.99,,2013-03-14 08:51:00,
2013-03-14 03:01:00,36.0,21.0,-100.00,NW,305,6.0,12.0,53,-99.99,,,-99.99,,2013-03-14 09:01:00,
2013-03-14 03:12:00,35.0,22.0,-100.00,NW,320,7.0,11.0,56,-99.99,,,-99.99,,2013-03-14 09:12:00,
2013-03-14 03:22:00,35.0,22.0,-100.00,NW,320,9.0,14.0,58,-99.99,,,-99.99,,2013-03-14 09:22:00,
2013-03-14 03:32:00,35.0,22.0,-100.00,NNW,345,9.0,11.0,58,-99.99,,,-99.99,,2013-03-14 09:32:00,
2013-03-14 03:42:00,34.0,22.0,-100.00,NNW,340,9.0,12.0,59,-99.99,,,-99.99,,2013-03-14 09:42:00,
2013-03-14 03:52:00,34.0,22.0,-100.00,NW,320,11.0,13.0,60,-99.99,,,-99.99,,2013-03-14 09:52:00,
2013-03-14 04:02:00,34.0,22.0,-100.00,NNW,330,10.0,14.0,60,-99.99,,,-99.99,,2013-03-14 10:02:00,
2013-03-14 04:12:00,33.0,22.0,-100.00,NNW,335,8.0,14.0,62,-99.99,,,-99.99,,2013-03-14 10:12:00,
2013-03-14 04:22:00,34.0,22.0,-100.00,NNW,330,9.0,12.0,62,-99.99,,,-99.99,,2013-03-14 10:22:00,
2013-03-14 04:32:00,34.0,22.0,-100.00,NW,305,12.0,17.0,61,-99.99,,,-99.99,,2013-03-14 10:32:00,
2013-03-14 04:52:00,35.0,22.0,-100.00,NW,305,11.0,16.0,59,-99.99,,,-99.99,,2013-03-14 10:52:00,
2013-03-14 05:02:00,35.0,22.0,-100.00,WNW,300,7.0,16.0,57,-99.99,,,-99.99,,2013-03-14 11:02:00,
2013-03-14 05:12:00,35.0,21.0,-100.00,WNW,295,10.0,12.0,58,-99.99,,,-99.99,,2013-03-14 11:12:00,
2013-03-14 05:22:00,35.0,21.0,-100.00,WNW,290,11.0,17.0,56,-99.99,,,-99.99,,2013-03-14 11:22:00,
2013-03-14 05:33:00,36.0,21.0,-100.00,WNW,300,11.0,16.0,55,-99.99,,,-99.99,,2013-03-14 11:33:00,
2013-03-14 05:42:00,35.0,21.0,-100.00,NW,310,11.0,14.0,55,-99.99,,,-99.99,,2013-03-14 11:42:00,
2013-03-14 05:52:00,36.0,21.0,-100.00,WNW,295,13.0,19.0,54,-99.99,,,-99.99,,2013-03-14 11:52:00,
2013-03-14 06:02:00,35.0,21.0,-100.00,West,280,12.0,17.0,55,-99.99,,,-99.99,,2013-03-14 12:02:00,
2013-03-14 06:12:00,35.0,20.0,-100.00,WNW,295,11.0,15.0,55,-99.99,,,-99.99,,2013-03-14 12:12:00,
2013-03-14 06:22:00,33.0,20.0,-100.00,WNW,295,5.0,10.0,57,-99.99,,,-99.99,,2013-03-14 12:22:00,
2013-03-14 06:33:00,33.0,20.0,-100.00,NW,310,4.0,6.0,58,-99.99,,,-99.99,,2013-03-14 12:33:00,
2013-03-14 06:42:00,32.0,20.0,-100.00,NW,305,4.0,6.0,59,-99.99,,,-99.99,,2013-03-14 12:42:00,
2013-03-14 06:52:00,32.0,20.0,-100.00,NW,305,6.0,7.0,59,-99.99,,,-99.99,,2013-03-14 12:52:00,
2013-03-14 07:02:00,32.0,19.0,-100.00,NW,305,7.0,8.0,59,-99.99,,,-99.99,,2013-03-14 13:02:00,
2013-03-14 07:12:00,32.0,20.0,-100.00,WNW,285,8.0,11.0,58,-99.99,,,-99.99,,2013-03-14 13:12:00,
2013-03-14 07:22:00,34.0,19.0,-100.00,WNW,290,7.0,14.0,54,-99.99,,,-99.99,,2013-03-14 13:22:00,
2013-03-14 07:32:00,32.0,19.0,-100.00,NW,305,7.0,9.0,58,-99.99,,,-99.99,,2013-03-14 13:32:00,
2013-03-14 07:42:00,32.0,19.0,-100.00,WNW,300,7.0,9.0,58,-99.99,,,-99.99,,2013-03-14 13:42:00,
2013-03-14 07:52:00,33.0,20.0,-100.00,WNW,290,6.0,9.0,58,-99.99,,,-99.99,,2013-03-14 13:52:00,
2013-03-14 08:02:00,34.0,20.0,-100.00,West,280,11.0,13.0,56,-99.99,,,-99.99,,2013-03-14 14:02:00,
2013-03-14 08:12:00,35.0,20.0,-100.00,WNW,285,11.0,14.0,55,-99.99,,,-99.99,,2013-03-14 14:12:00,
2013-03-14 08:22:00,36.0,21.0,-100.00,West,280,16.0,20.0,52,-99.99,,,-99.99,,2013-03-14 14:22:00,
2013-03-14 08:32:00,37.0,21.0,-100.00,West,270,13.0,21.0,52,-99.99,,,-99.99,,2013-03-14 14:32:00,
2013-03-14 08:42:00,38.0,22.0,-100.00,West,270,16.0,21.0,52,-99.99,,,-99.99,,2013-03-14 14:42:00,
2013-03-14 08:52:00,39.0,22.0,-100.00,West,270,18.0,22.0,50,-99.99,,,-99.99,,2013-03-14 14:52:00,
2013-03-14 09:02:00,40.0,23.0,-100.00,West,280,17.0,24.0,49,-99.99,,,-99.99,,2013-03-14 15:02:00,
2013-03-14 09:12:00,40.0,23.0,-100.00,West,275,16.0,24.0,49,-99.99,,,-99.99,,2013-03-14 15:12:00,
2013-03-14 09:22:00,41.0,23.0,-100.00,WNW,295,14.0,22.0,47,-99.99,,,-99.99,,2013-03-14 15:22:00,
2013-03-14 09:32:00,42.0,23.0,-100.00,WNW,290,17.0,23.0,47,-99.99,,,-99.99,,2013-03-14 15:32:00,
2013-03-14 09:42:00,42.0,23.0,-100.00,WNW,295,17.0,22.0,46,-99.99,,,-99.99,,2013-03-14 15:42:00,
2013-03-14 09:52:00,43.0,24.0,-100.00,WNW,295,18.0,24.0,46,-99.99,,,-99.99,,2013-03-14 15:52:00,
2013-03-14 10:03:00,43.0,24.0,-100.00,WNW,295,17.0,24.0,46,-99.99,,,-99.99,,2013-03-14 16:03:00,
2013-03-14 10:12:00,44.0,24.0,-100.00,WNW,295,15.0,23.0,46,-99.99,,,-99.99,,2013-03-14 16:12:00,
2013-03-14 10:22:00,44.0,25.0,-100.00,WNW,290,19.0,24.0,45,-99.99,,,-99.99,,2013-03-14 16:22:00,
2013-03-14 10:32:00,45.0,25.0,-100.00,West,280,16.0,26.0,44,-99.99,,,-99.99,,2013-03-14 16:32:00,
2013-03-14 10:42:00,45.0,24.0,-100.00,West,280,21.0,26.0,43,-99.99,,,-99.99,,2013-03-14 16:42:00,
2013-03-14 10:52:00,45.0,24.0,-100.00,West,280,21.0,29.0,43,-99.99,,,-99.99,,2013-03-14 16:52:00,
2013-03-14 11:02:00,46.0,24.0,-100.00,West,280,21.0,33.0,42,-99.99,,,-99.99,,2013-03-14 17:02:00,
2013-03-14 11:12:00,46.0,24.0,-100.00,West,270,21.0,27.0,41,-99.99,,,-99.99,,2013-03-14 17:12:00,
2013-03-14 11:23:00,46.0,24.0,-100.00,West,280,23.0,32.0,40,-99.99,,,-99.99,,2013-03-14 17:23:00,
2013-03-14 11:32:00,46.0,23.0,-100.00,West,275,26.0,32.0,39,-99.99,,,-99.99,,2013-03-14 17:32:00,
2013-03-14 11:42:00,47.0,24.0,-100.00,West,275,22.0,31.0,39,-99.99,,,-99.99,,2013-03-14 17:42:00,
2013-03-14 11:52:00,47.0,24.0,-100.00,West,280,21.0,29.0,39,-99.99,,,-99.99,,2013-03-14 17:52:00,
2013-03-14 12:02:00,47.0,24.0,-100.00,West,280,22.0,27.0,38,-99.99,,,-99.99,,2013-03-14 18:02:00,
2013-03-14 12:12:00,48.0,24.0,-100.00,West,275,20.0,27.0,38,-99.99,,,-99.99,,2013-03-14 18:12:00,
2013-03-14 12:22:00,49.0,24.0,-100.00,West,265,20.0,28.0,37,-99.99,,,-99.99,,2013-03-14 18:22:00,
2013-03-14 12:32:00,49.0,24.0,-100.00,West,265,19.0,27.0,36,-99.99,,,-99.99,,2013-03-14 18:32:00,
2013-03-14 12:42:00,49.0,23.0,-100.00,West,265,18.0,27.0,36,-99.99,,,-99.99,,2013-03-14 18:42:00,
2013-03-14 12:52:00,49.0,23.0,-100.00,West,265,21.0,27.0,35,-99.99,,,-99.99,,2013-03-14 18:52:00,
2013-03-14 13:02:00,49.0,23.0,-100.00,West,270,22.0,29.0,34,-99.99,,,-99.99,,2013-03-14 19:02:00,
2013-03-14 13:12:00,49.0,22.0,-100.00,WSW,255,22.0,31.0,34,-99.99,,,-99.99,,2013-03-14 19:12:00,
2013-03-14 13:22:00,50.0,23.0,-100.00,West,260,26.0,31.0,34,-99.99,,,-99.99,,2013-03-14 19:22:00,
2013-03-14 13:32:00,51.0,23.0,-100.00,West,270,21.0,30.0,33,-99.99,,,-99.99,,2013-03-14 19:32:00,
2013-03-14 13:42:00,50.0,22.0,-100.00,West,265,21.0,30.0,32,-99.99,,,-99.99,,2013-03-14 19:42:00,
2013-03-14 13:52:00,50.0,22.0,-100.00,West,265,21.0,30.0,32,-99.99,,,-99.99,,2013-03-14 19:52:00,
2013-03-14 14:02:00,51.0,22.0,-100.00,West,265,21.0,29.0,32,-99.99,,,-99.99,,2013-03-14 20:02:00,
2013-03-14 14:11:00,51.0,22.0,-100.00,WSW,255,21.0,28.0,32,-99.99,,,-99.99,,2013-03-14 20:11:00,
2013-03-14 14:22:00,50.0,22.0,-100.00,West,260,17.0,26.0,32,-99.99,,,-99.99,,2013-03-14 20:22:00,
2013-03-14 14:32:00,50.0,22.0,-100.00,WSW,255,20.0,28.0,32,-99.99,,,-99.99,,2013-03-14 20:32:00,
2013-03-14 14:42:00,49.0,21.0,-100.00,WSW,255,19.0,24.0,32,-99.99,,,-99.99,,2013-03-14 20:42:00,
2013-03-14 14:52:00,48.0,21.0,-100.00,WSW,240,16.0,24.0,33,-99.99,,,-99.99,,2013-03-14 20:52:00,
2013-03-14 15:02:00,48.0,21.0,-100.00,WSW,245,17.0,27.0,33,-99.99,,,-99.99,,2013-03-14 21:02:00,
2013-03-14 15:12:00,49.0,21.0,-100.00,SW,235,12.0,24.0,33,-99.99,,,-99.99,,2013-03-14 21:12:00,
2013-03-14 15:22:00,51.0,22.0,-100.00,WSW,250,12.0,21.0,32,-99.99,,,-99.99,,2013-03-14 21:22:00,
2013-03-14 15:32:00,50.0,21.0,-100.00,WSW,250,17.0,24.0,32,-99.99,,,-99.99,,2013-03-14 21:32:00,
2013-03-14 15:43:00,51.0,22.0,-100.00,WSW,250,20.0,26.0,31,-99.99,,,-99.99,,2013-03-14 21:43:00,
2013-03-14 15:52:00,51.0,22.0,-100.00,WSW,245,21.0,30.0,31,-99.99,,,-99.99,,2013-03-14 21:52:00,
2013-03-14 16:03:00,51.0,22.0,-100.00,WSW,245,18.0,26.0,31,-99.99,,,-99.99,,2013-03-14 22:03:00,
2013-03-14 16:12:00,51.0,22.0,-100.00,WSW,240,18.0,27.0,31,-99.99,,,-99.99,,2013-03-14 22:12:00,
2013-03-14 16:23:00,51.0,22.0,-100.00,WSW,240,18.0,29.0,31,-99.99,,,-99.99,,2013-03-14 22:23:00,
2013-03-14 16:33:00,52.0,22.0,-100.00,WSW,245,16.0,26.0,31,-99.99,,,-99.99,,2013-03-14 22:33:00,
2013-03-14 16:42:00,52.0,23.0,-100.00,WSW,240,17.0,26.0,31,-99.99,,,-99.99,,2013-03-14 22:42:00,
2013-03-14 16:52:00,52.0,23.0,-100.00,WSW,245,15.0,24.0,31,-99.99,,,-99.99,,2013-03-14 22:52:00,
2013-03-14 17:02:00,52.0,23.0,-100.00,WSW,240,17.0,24.0,31,-99.99,,,-99.99,,2013-03-14 23:02:00,
2013-03-14 17:12:00,52.0,23.0,-100.00,WSW,240,19.0,25.0,31,-99.99,,,-99.99,,2013-03-14 23:12:00,
2013-03-14 17:22:00,50.0,21.0,-100.00,WSW,250,19.0,25.0,32,-99.99,,,-99.99,,2013-03-14 23:22:00,
2013-03-14 17:33:00,49.0,22.0,-100.00,WSW,250,17.0,24.0,33,-99.99,,,-99.99,,2013-03-14 23:33:00,
2013-03-14 17:42:00,49.0,21.0,-100.00,WSW,245,18.0,26.0,33,-99.99,,,-99.99,,2013-03-14 23:42:00,
2013-03-14 17:53:00,48.0,21.0,-100.00,WSW,245,18.0,25.0,34,-99.99,,,-99.99,,2013-03-14 23:53:00,
2013-03-14 18:02:00,48.0,21.0,-100.00,WSW,240,15.0,22.0,34,-99.99,,,-99.99,,2013-03-15 00:02:00,
2013-03-14 18:12:00,47.0,21.0,-100.00,WSW,245,15.0,25.0,34,-99.99,,,-99.99,,2013-03-15 00:12:00,
2013-03-14 18:22:00,47.0,21.0,-100.00,WSW,250,16.0,21.0,34,-99.99,,,-99.99,,2013-03-15 00:22:00,
2013-03-14 18:32:00,47.0,21.0,-100.00,WSW,245,14.0,19.0,35,-99.99,,,-99.99,,2013-03-15 00:32:00,
2013-03-14 18:42:00,47.0,21.0,-100.00,WSW,240,12.0,17.0,35,-99.99,,,-99.99,,2013-03-15 00:42:00,
2013-03-14 18:52:00,46.0,21.0,-100.00,WSW,250,10.0,13.0,36,-99.99,,,-99.99,,2013-03-15 00:52:00,
2013-03-14 19:02:00,46.0,21.0,-100.00,WSW,250,11.0,15.0,36,-99.99,,,-99.99,,2013-03-15 01:02:00,
2013-03-14 19:12:00,46.0,20.0,-100.00,WSW,245,9.0,16.0,36,-99.99,,,-99.99,,2013-03-15 01:12:00,
2013-03-14 19:22:00,45.0,20.0,-100.00,WSW,250,12.0,17.0,35,-99.99,,,-99.99,,2013-03-15 01:22:00,
2013-03-14 19:32:00,45.0,20.0,-100.00,WSW,255,12.0,19.0,35,-99.99,,,-99.99,,2013-03-15 01:32:00,
2013-03-14 19:42:00,45.0,19.0,-100.00,WSW,245,13.0,19.0,35,-99.99,,,-99.99,,2013-03-15 01:42:00,
2013-03-14 19:52:00,45.0,19.0,-100.00,WSW,250,12.0,20.0,34,-99.99,,,-99.99,,2013-03-15 01:52:00,
2013-03-14 20:02:00,45.0,19.0,-100.00,WSW,255,10.0,17.0,34,-99.99,,,-99.99,,2013-03-15 02:02:00,
2013-03-14 20:12:00,45.0,19.0,-100.00,SW,235,8.0,17.0,34,-99.99,,,-99.99,,2013-03-15 02:12:00,
2013-03-14 20:22:00,44.0,19.0,-100.00,WSW,250,10.0,13.0,36,-99.99,,,-99.99,,2013-03-15 02:22:00,
2013-03-14 20:32:00,44.0,19.0,-100.00,WSW,250,9.0,14.0,36,-99.99,,,-99.99,,2013-03-15 02:32:00,
2013-03-14 20:42:00,44.0,20.0,-100.00,WSW,250,12.0,18.0,37,-99.99,,,-99.99,,2013-03-15 02:42:00,
2013-03-14 20:52:00,44.0,20.0,-100.00,WSW,255,15.0,22.0,37,-99.99,,,-99.99,,2013-03-15 02:52:00,
2013-03-14 21:02:00,44.0,20.0,-100.00,WSW,250,17.0,25.0,37,-99.99,,,-99.99,,2013-03-15 03:02:00,
2013-03-14 21:12:00,44.0,20.0,-100.00,WSW,245,16.0,25.0,37,-99.99,,,-99.99,,2013-03-15 03:12:00,
2013-03-14 21:22:00,45.0,20.0,-100.00,WSW,255,17.0,21.0,37,-99.99,,,-99.99,,2013-03-15 03:22:00,
2013-03-14 21:33:00,44.0,20.0,-100.00,WSW,245,17.0,21.0,37,-99.99,,,-99.99,,2013-03-15 03:33:00,
2013-03-14 21:42:00,44.0,19.0,-100.00,WSW,245,10.0,19.0,36,-99.99,,,-99.99,,2013-03-15 03:42:00,
2013-03-14 21:52:00,43.0,19.0,-100.00,WSW,245,9.0,17.0,37,-99.99,,,-99.99,,2013-03-15 03:52:00,
2013-03-14 22:03:00,43.0,19.0,-100.00,WSW,240,11.0,15.0,37,-99.99,,,-99.99,,2013-03-15 04:03:00,
2013-03-14 22:12:00,44.0,19.0,-100.00,WSW,240,12.0,20.0,36,-99.99,,,-99.99,,2013-03-15 04:12:00,
2013-03-14 22:22:00,44.0,19.0,-100.00,SW,235,12.0,19.0,36,-99.99,,,-99.99,,2013-03-15 04:22:00,
2013-03-14 22:32:00,44.0,19.0,-100.00,WSW,245,14.0,20.0,36,-99.99,,,-99.99,,2013-03-15 04:32:00,
2013-03-14 22:42:00,44.0,19.0,-100.00,WSW,245,14.0,19.0,36,-99.99,,,-99.99,,2013-03-15 04:42:00,
2013-03-14 22:52:00,44.0,19.0,-100.00,West,265,14.0,20.0,36,-99.99,,,-99.99,,2013-03-15 04:52:00,
2013-03-14 23:02:00,44.0,19.0,-100.00,WSW,255,14.0,22.0,37,-99.99,,,-99.99,,2013-03-15 05:02:00,
2013-03-14 23:12:00,44.0,20.0,-100.00,West,265,16.0,21.0,37,-99.99,,,-99.99,,2013-03-15 05:12:00,
2013-03-14 23:22:00,43.0,19.0,-100.00,West,265,16.0,24.0,37,-99.99,,,-99.99,,2013-03-15 05:22:00,
2013-03-14 23:32:00,43.0,19.0,-100.00,West,260,14.0,22.0,37,-99.99,,,-99.99,,2013-03-15 05:32:00,
2013-03-14 23:42:00,45.0,20.0,-100.00,WSW,255,23.0,30.0,36,-99.99,,,-99.99,,2013-03-15 05:42:00,
2013-03-14 23:52:00,44.0,20.0,-100.00,West,265,15.0,28.0,36,-99.99,,,-99.99,,2013-03-15 05:52:00,